Location: Hertford
(51.8000°N, 0.0667°W)
Time: 06:51:39
(UTC+00:00)

Meteor 1-12 Rocket - Pass Details

Date: 18 September 2020
Orbit: 854 x 927 km, 81.2° (Epoch: 18 October)

Event Time Altitude Azimuth Distance (km) Brightness Sun altitude
Rises 19:51:10 0° 193° (SSW) 3,536 7.3 -16.4°
Reaches altitude 10° 19:53:39 10° 194° (SSW) 2,589 6.6 -16.7°
Maximum altitude 19:59:35 83° 283° (WNW) 911 4.4 -17.6°
Drops below altitude 10° 20:05:25 10° 12° (NNE) 2,558 6.9 -18.4°
Sets 20:07:52 0° 13° (NNE) 3,490 7.6 -18.7°
